| time (UTC) | temp F | wind direction | speed MPH | gust MPH | rain 1hr in | rain 24hr in | rain mn in | humidity % | barometer mb |
| 20260507171559 | 55 | 31 | 11.0 | 20.0 | 0.00 | 0.00 | 0.00 | 41 | 1012.3 |
| 20260507170057 | 55 | 341 | 3.0 | 17.0 | 0.00 | 0.00 | 0.00 | 42 | 1012.4 |
| 20260507164552 | 54 | 345 | 10.0 | 16.0 | 0.00 | 0.00 | 0.00 | 40 | 1012.6 |
| 20260507163049 | 54 | 333 | 3.0 | 15.0 | 0.00 | 0.00 | 0.00 | 43 | 1012.9 |
| 20260507161545 | 53 | 329 | 7.0 | 12.0 | 0.00 | 0.00 | 0.00 | 44 | 1013.1 |
| 20260507160043 | 53 | 13 | 3.0 | 8.0 | 0.00 | 0.00 | 0.00 | 44 | 1013.3 |
| 20260507154539 | 52 | 23 | 5.0 | 12.0 | 0.00 | 0.00 | 0.00 | 46 | 1013.6 |
| 20260507153035 | 51 | 348 | 5.0 | 12.0 | 0.00 | 0.00 | 0.00 | 46 | 1013.9 |
| 20260507151529 | 49 | 334 | 7.0 | 10.0 | 0.00 | 0.00 | 0.00 | 45 | 1014.2 |
| 20260507150025 | 49 | 12 | 4.0 | 10.0 | 0.00 | 0.00 | 0.00 | 46 | 1014.4 |
| 20260507144521 | 48 | 5 | 8.0 | 16.0 | 0.00 | 0.00 | 0.00 | 48 | 1014.8 |
| 20260507143018 | 48 | 64 | 8.0 | 13.0 | 0.00 | 0.00 | 0.00 | 50 | 1015.0 |
| 20260507141510 | 46 | 345 | 5.0 | 8.0 | 0.00 | 0.00 | 0.00 | 53 | 1015.1 |
| 20260507140013 | 45 | 358 | 5.0 | 10.0 | 0.00 | 0.00 | 0.00 | 56 | 1015.1 |
| 20260507134503 | 44 | 5 | 3.0 | 7.0 | 0.00 | 0.00 | 0.00 | 61 | 1015.2 |
| 20260507133105 | 43 | 356 | 2.0 | 5.0 | 0.00 | 0.00 | 0.00 | 65 | 1015.4 |
| 20260507131557 | 42 | 345 | 1.0 | 5.0 | 0.00 | 0.00 | 0.00 | 67 | 1015.5 |
| 20260507130051 | 41 | 6 | 1.0 | 5.0 | 0.00 | 0.00 | 0.00 | 72 | 1015.4 |
| 20260507124546 | 40 | 16 | 2.0 | 4.0 | 0.00 | 0.00 | 0.00 | 75 | 1015.5 |
| 20260507123044 | 39 | 14 | 1.0 | 6.0 | 0.00 | 0.00 | 0.00 | 77 | 1015.2 |
| 20260507121538 | 38 | 20 | 2.0 | 6.0 | 0.00 | 0.00 | 0.00 | 77 | 1015.1 |
| 20260507120036 | 37 | 45 | 1.0 | 3.0 | 0.00 | 0.00 | 0.00 | 81 | 1015.1 |
| 20260507114536 | 36 | 44 | 1.0 | 3.0 | 0.00 | 0.00 | 0.00 | 83 | 1015.0 |
| 20260507113039 | 35 | 45 | 1.0 | 3.0 | 0.00 | 0.00 | 0.00 | 84 | 1015.0 |
| 20260507111533 | 34 | 44 | 0.0 | 3.0 | 0.00 | 0.00 | 0.00 | 85 | 1014.9 |
| 20260507110031 | 33 | 44 | 1.0 | 2.0 | 0.00 | 0.00 | 0.00 | 84 | 1014.8 |
| 20260507104534 | 34 | 44 | 1.0 | 3.0 | 0.00 | 0.00 | 0.00 | 84 | 1014.8 |
| 20260507103028 | 33 | 45 | 0.0 | 3.0 | 0.00 | 0.00 | 0.00 | 84 | 1014.7 |
| 20260507101626 | 33 | 48 | 0.0 | 2.0 | 0.00 | 0.00 | 0.00 | 83 | 1014.8 |
| 20260507100058 | 34 | 47 | 0.0 | 0.0 | 0.00 | 0.00 | 0.00 | 81 | 1014.7 |
| 20260507094600 | 34 | 47 | 0.0 | 0.0 | 0.00 | 0.00 | 0.00 | 80 | 1014.8 |
| 20260507093028 | 34 | 47 | 0.0 | 0.0 | 0.00 | 0.00 | 0.00 | 80 | 1014.8 |
| 20260507091546 | 34 | 46 | 0.0 | 0.0 | 0.00 | 0.00 | 0.00 | 78 | 1014.9 |
| 20260507090109 | 34 | 46 | 0.0 | 0.0 | 0.00 | 0.00 | 0.00 | 76 | 1014.8 |
| 20260507084549 | 35 | 46 | 0.0 | 0.0 | 0.00 | 0.00 | 0.00 | 75 | 1014.8 |
| 20260507083046 | 35 | 46 | 0.0 | 0.0 | 0.00 | 0.00 | 0.00 | 75 | 1014.8 |
| 20260507081552 | 35 | 46 | 0.0 | 0.0 | 0.00 | 0.00 | 0.00 | 74 | 1014.7 |
| 20260507080042 | 36 | 46 | 0.0 | 0.0 | 0.00 | 0.00 | 0.00 | 74 | 1014.8 |
| 20260507074543 | 36 | 46 | 0.0 | 0.0 | 0.00 | 0.00 | 0.00 | 74 | 1014.9 |
| 20260507073012 | 36 | 46 | 0.0 | 0.0 | 0.00 | 0.00 | 0.00 | 73 | 1014.9 |
| 20260507071509 | 36 | 46 | 0.0 | 0.0 | 0.00 | 0.00 | 0.00 | 73 | 1015.3 |
| 20260507070055 | 36 | 46 | 0.0 | 0.0 | 0.00 | 0.00 | 0.00 | 72 | 1015.3 |
| 20260507064539 | 37 | 46 | 0.0 | 0.0 | 0.00 | 0.00 | 0.00 | 70 | 1015.2 |
| 20260507063006 | 38 | 46 | 0.0 | 0.0 | 0.00 | 0.00 | 0.00 | 68 | 1015.3 |
| 20260507061508 | 38 | 46 | 0.0 | 0.0 | 0.00 | 0.00 | 0.00 | 66 | 1015.3 |
| 20260507060059 | 39 | 46 | 0.0 | 1.0 | 0.00 | 0.00 | 0.00 | 65 | 1015.4 |
| 20260507054617 | 39 | 49 | 0.0 | 1.0 | 0.00 | 0.00 | 0.00 | 64 | 1015.2 |
| 20260507053057 | 39 | 47 | 0.0 | 1.0 | 0.00 | 0.00 | 0.00 | 63 | 1015.3 |
| 20260507051555 | 40 | 46 | 0.0 | 0.0 | 0.00 | 0.00 | 0.00 | 62 | 1015.4 |
| 20260507050032 | 40 | 46 | 0.0 | 0.0 | 0.00 | 0.00 | 0.00 | 62 | 1015.3 |
| 20260507044539 | 41 | 46 | 0.0 | 1.0 | 0.00 | 0.00 | 0.00 | 60 | 1015.3 |
| 20260507043018 | 41 | 46 | 0.0 | 1.0 | 0.00 | 0.00 | 0.00 | 59 | 1015.3 |
| 20260507041517 | 41 | 46 | 0.0 | 1.0 | 0.00 | 0.00 | 0.00 | 59 | 1015.3 |
| 20260507040014 | 42 | 46 | 0.0 | 2.0 | 0.00 | 0.00 | 0.00 | 57 | 1015.4 |
| 20260507034513 | 42 | 46 | 1.0 | 2.0 | 0.00 | 0.00 | 0.00 | 56 | 1015.3 |
| 20260507033010 | 43 | 46 | 1.0 | 2.0 | 0.00 | 0.00 | 0.00 | 55 | 1015.4 |
| 20260507031508 | 44 | 46 | 2.0 | 5.0 | 0.00 | 0.00 | 0.00 | 54 | 1015.5 |
| 20260507030008 | 44 | 62 | 2.0 | 7.0 | 0.00 | 0.00 | 0.00 | 53 | 1015.4 |
| 20260507024506 | 44 | 43 | 2.0 | 7.0 | 0.00 | 0.00 | 0.00 | 52 | 1015.3 |
| 20260507023034 | 45 | 46 | 4.0 | 10.0 | 0.00 | 0.00 | 0.00 | 51 | 1015.1 |
| 20260507021531 | 45 | 85 | 3.0 | 7.0 | 0.00 | 0.00 | 0.00 | 50 | 1014.9 |
| 20260507020107 | 46 | 85 | 2.0 | 8.0 | 0.00 | 0.00 | 0.00 | 49 | 1014.7 |
| 20260507014615 | 46 | 46 | 3.0 | 10.0 | 0.00 | 0.00 | 0.00 | 48 | 1014.6 |
| 20260507013056 | 47 | 37 | 5.0 | 11.0 | 0.00 | 0.00 | 0.00 | 46 | 1014.5 |
| 20260507011553 | 47 | 29 | 5.0 | 9.0 | 0.00 | 0.00 | 0.00 | 46 | 1014.4 |
| 20260507004549 | 48 | 6 | 6.0 | 15.0 | 0.00 | 0.00 | 0.00 | 44 | 1014.2 |
| 20260507003046 | 49 | 35 | 3.0 | 20.0 | 0.00 | 0.00 | 0.00 | 45 | 1014.1 |
| 20260507001550 | 50 | 74 | 7.0 | 17.0 | 0.00 | 0.00 | 0.00 | 44 | 1013.9 |
| 20260507000045 | 51 | 34 | 10.0 | 18.0 | 0.00 | 0.00 | 0.00 | 43 | 1013.7 |
| 20260506234543 | 51 | 42 | 10.0 | 18.0 | 0.00 | 0.00 | 0.00 | 44 | 1013.6 |
| 20260506233040 | 51 | 346 | 10.0 | 21.0 | 0.00 | 0.00 | 0.00 | 43 | 1013.5 |
| 20260506231540 | 51 | 72 | 8.0 | 18.0 | 0.00 | 0.00 | 0.00 | 43 | 1013.3 |
| 20260506230038 | 52 | 27 | 5.0 | 16.0 | 0.00 | 0.00 | 0.00 | 43 | 1013.2 |
| 20260506224538 | 52 | 52 | 7.0 | 18.0 | 0.00 | 0.00 | 0.00 | 42 | 1013.1 |
| 20260506223008 | 52 | 10 | 10.0 | 19.0 | 0.00 | 0.00 | 0.00 | 42 | 1013.0 |
| 20260506221610 | 52 | 46 | 8.0 | 15.0 | 0.00 | 0.00 | 0.00 | 42 | 1012.9 |
| 20260506220003 | 52 | 69 | 5.0 | 16.0 | 0.00 | 0.00 | 0.00 | 43 | 1012.8 |
| 20260506214503 | 52 | 75 | 10.0 | 18.0 | 0.00 | 0.00 | 0.00 | 42 | 1012.7 |
| 20260506213001 | 53 | 47 | 8.0 | 16.0 | 0.00 | 0.00 | 0.00 | 41 | 1012.8 |
| 20260506211501 | 54 | 39 | 9.0 | 19.0 | 0.00 | 0.00 | 0.00 | 41 | 1012.6 |
| 20260506210051 | 53 | 53 | 8.0 | 16.0 | 0.00 | 0.00 | 0.00 | 42 | 1012.6 |
| 20260506204550 | 54 | 34 | 7.0 | 17.0 | 0.00 | 0.00 | 0.00 | 40 | 1012.5 |
| 20260506203052 | 54 | 83 | 9.0 | 13.0 | 0.00 | 0.00 | 0.00 | 39 | 1012.5 |
| 20260506201607 | 54 | 65 | 7.0 | 19.0 | 0.00 | 0.00 | 0.00 | 39 | 1012.6 |
| 20260506200048 | 54 | 79 | 10.0 | 16.0 | 0.00 | 0.00 | 0.00 | 38 | 1012.7 |
| 20260506194552 | 54 | 15 | 9.0 | 19.0 | 0.00 | 0.00 | 0.00 | 37 | 1012.8 |
| 20260506193051 | 54 | 4 | 7.0 | 17.0 | 0.00 | 0.00 | 0.00 | 39 | 1012.9 |
| 20260506191546 | 54 | 16 | 9.0 | 15.0 | 0.00 | 0.00 | 0.00 | 37 | 1012.7 |
| 20260506190046 | 54 | 46 | 11.0 | 20.0 | 0.00 | 0.00 | 0.00 | 39 | 1012.9 |
| 20260506184551 | 54 | 11 | 10.0 | 16.0 | 0.00 | 0.00 | 0.00 | 39 | 1013.0 |
| 20260506183044 | 53 | 44 | 11.0 | 18.0 | 0.00 | 0.00 | 0.00 | 39 | 1012.9 |
| 20260506181544 | 53 | 19 | 8.0 | 17.0 | 0.00 | 0.00 | 0.00 | 40 | 1013.0 |
| 20260506180052 | 53 | 82 | 7.0 | 19.0 | 0.00 | 0.00 | 0.00 | 39 | 1012.9 |
| 20260506174551 | 53 | 335 | 10.0 | 20.0 | 0.00 | 0.00 | 0.00 | 38 | 1013.1 |
| 20260506173112 | 53 | 42 | 7.0 | 17.0 | 0.00 | 0.00 | 0.00 | 38 | 1012.9 |